Date String (YYYY-MM-DD hh:mm:ss) UTC,Instrument flags,Ambient pressure (hPa),Sample flow (lpm),Bypass flow (lpm),Sample temperature (°C),Ambient temperature (°C),ASC tube jacket temperature (°C),LED temperature (°C),Box temperature (°C),Sample RH (%),Span deviation,Mass concentration (μg/m³),Mass concentration (μg/m³),Mass concentration (μg/m³)
DateTimeUTC,F1_M11,P_M11,Q1_M11,Q2_M11,T1_M11,T2_M11,T3_M11,T4_M11,T5_M11,U1_M11,ZSPAN_M11,X2_M11,X0_M11,X1_M11
2021-10-20 00:00:00,,0824.9,5.00,0.00,29.2,28.2,00.0,38.5,30.9,14.2,0000.0,0003.42,0017.65,0000.96
2021-10-20 00:01:00,,0824.9,5.00,0.00,29.2,28.3,00.0,38.5,31.0,14.2,0000.0,0003.39,0016.22,0000.98
2021-10-20 00:02:00,,0825.0,5.01,0.00,29.2,28.4,00.0,38.4,31.0,14.1,0000.0,0003.40,0018.40,0000.99
2021-10-20 00:03:00,,0825.0,4.98,0.00,29.3,28.5,00.0,38.4,31.0,14.1,0000.0,0003.41,0018.73,0001.01
2021-10-20 00:04:00,,0825.1,5.01,0.00,29.3,28.5,00.0,38.4,31.0,14.1,0000.0,0003.42,0019.22,0001.02
2021-10-20 00:05:00,,0825.1,5.00,0.00,29.3,28.4,00.0,38.4,31.0,14.1,0000.0,0003.35,0019.26,0001.02
2021-10-20 00:06:00,,0825.1,5.00,0.00,29.2,28.3,00.0,38.4,31.0,14.1,0000.0,0003.33,0019.50,0001.01
2021-10-20 00:07:00,,0825.1,5.00,0.00,29.2,28.2,00.0,38.4,31.0,14.1,0000.0,0003.36,0020.24,0001.02
2021-10-20 00:08:00,,0825.2,5.00,0.00,29.2,28.1,00.0,38.4,30.9,14.1,0000.0,0003.37,0020.40,0001.02
2021-10-20 00:09:00,,0825.2,5.01,0.00,29.2,28.1,00.0,38.4,30.9,14.1,0000.0,0003.37,0022.53,0001.01
2021-10-20 00:10:00,,0825.3,4.99,0.00,29.2,28.1,00.0,38.4,30.9,14.1,0000.0,0003.28,0022.80,0000.99
2021-10-20 00:11:00,,0825.3,5.01,0.00,29.1,28.0,00.0,38.4,30.9,14.1,0000.0,0003.25,0022.61,0000.98
2021-10-20 00:12:00,,0825.4,4.99,0.00,29.1,28.1,00.0,38.4,30.9,14.1,0000.0,0003.23,0022.62,0000.97
2021-10-20 00:13:00,,0825.5,5.01,0.00,29.1,28.1,00.0,38.3,30.8,14.2,0000.0,0003.17,0021.43,0000.95
2021-10-20 00:14:00,,0825.5,5.00,0.00,29.1,28.0,00.0,38.3,30.8,14.3,0000.0,0003.17,0019.84,0000.92
2021-10-20 00:15:00,,0825.4,5.00,0.00,29.1,28.0,00.0,38.3,30.8,14.4,0000.0,0003.11,0020.58,0000.91
2021-10-20 00:16:00,,0825.5,5.00,0.00,29.1,28.1,00.0,38.3,30.8,14.5,0000.0,0003.04,0021.59,0000.89
2021-10-20 00:17:00,,0825.4,4.99,0.00,29.1,28.0,00.0,38.3,30.8,14.6,0000.0,0002.94,0019.70,0000.88
2021-10-20 00:18:00,,0825.5,5.01,0.00,29.0,28.1,00.0,38.3,30.7,14.7,0000.0,0002.89,0018.75,0000.87
2021-10-20 00:19:00,,0825.5,4.99,0.00,29.0,28.2,00.0,38.3,30.7,14.8,0000.0,0002.74,0018.03,0000.85
2021-10-20 00:20:00,,0825.5,5.01,0.00,29.0,28.2,00.0,38.2,30.7,14.8,0000.0,0002.67,0016.23,0000.84
2021-10-20 00:21:00,,0825.5,5.00,0.00,29.0,28.2,00.0,38.2,30.7,14.8,0000.0,0002.58,0015.38,0000.82
2021-10-20 00:22:00,,0825.5,5.00,0.00,29.0,28.2,00.0,38.2,30.7,14.8,0000.0,0002.44,0015.19,0000.80
2021-10-20 00:23:00,,0825.5,5.00,0.00,29.0,28.2,00.0,38.2,30.7,14.9,0000.0,0002.35,0015.52,0000.78
2021-10-20 00:24:00,,0825.5,4.99,0.00,29.0,28.2,00.0,38.2,30.6,14.8,0000.0,0002.30,0014.94,0000.79
2021-10-20 00:25:00,,0825.5,5.00,0.00,29.0,28.3,00.0,38.2,30.7,14.9,0000.0,0002.24,0014.84,0000.78
2021-10-20 00:26:00,,0825.5,5.00,0.00,29.0,28.3,00.0,38.2,30.7,14.9,0000.0,0002.15,0014.04,0000.77
2021-10-20 00:27:00,,0825.6,5.00,0.00,29.0,28.2,00.0,38.2,30.7,14.9,0000.0,0002.14,0012.92,0000.75
2021-10-20 00:28:00,,0825.6,5.00,0.00,29.0,28.2,00.0,38.2,30.7,14.9,0000.0,0002.10,0012.63,0000.74
2021-10-20 00:29:00,,0825.6,4.99,0.00,28.9,28.1,00.0,38.2,30.7,14.9,0000.0,0002.02,0012.27,0000.73
2021-10-20 00:30:00,,0825.7,5.00,0.00,28.9,28.0,00.0,38.2,30.6,14.9,0000.0,0002.02,0012.75,0000.73
2021-10-20 00:31:00,,0825.6,5.01,0.00,28.9,28.0,00.0,38.2,30.6,14.9,0000.0,0001.98,0013.16,0000.73
2021-10-20 00:32:00,,0825.7,5.00,0.00,28.9,27.9,00.0,38.1,30.6,14.9,0000.0,0002.01,0012.78,0000.73
2021-10-20 00:33:00,,0825.7,5.01,0.00,28.9,27.9,00.0,38.1,30.5,15.0,0000.0,0001.95,0012.18,0000.75
2021-10-20 00:34:00,,0825.7,5.00,0.00,28.8,27.9,00.0,38.1,30.5,15.0,0000.0,0001.96,0011.80,0000.76
2021-10-20 00:35:00,,0825.7,5.00,0.00,28.8,27.8,00.0,38.1,30.5,15.0,0000.0,0001.97,0012.30,0000.75
2021-10-20 00:36:00,,0825.8,5.00,0.00,28.8,27.8,00.0,38.1,30.4,15.0,0000.0,0001.90,0012.06,0000.75
2021-10-20 00:37:00,,0825.9,5.00,0.00,28.7,27.8,00.0,38.0,30.4,15.1,0000.0,0001.89,0011.30,0000.76
2021-10-20 00:38:00,,0825.8,5.00,0.00,28.7,27.9,00.0,38.0,30.4,15.1,0000.0,0001.84,0009.67,0000.77
2021-10-20 00:39:00,,0825.8,5.00,0.00,28.7,27.8,00.0,38.0,30.3,15.1,0000.0,0001.86,0009.93,0000.79
2021-10-20 00:40:00,,0825.9,5.00,0.00,28.7,27.8,00.0,38.0,30.3,15.2,0000.0,0001.84,0010.01,0000.80
2021-10-20 00:41:00,,0825.8,5.01,0.00,28.7,27.8,00.0,38.0,30.3,15.2,0000.0,0001.82,0009.40,0000.81
2021-10-20 00:42:00,,0825.8,5.01,0.00,28.6,27.8,00.0,38.0,30.3,15.2,0000.0,0001.83,0009.10,0000.81
2021-10-20 00:43:00,,0825.8,4.99,0.00,28.6,27.8,00.0,37.9,30.3,15.2,0000.0,0001.81,0009.74,0000.81
2021-10-20 00:44:00,,0825.7,5.00,0.00,28.6,27.8,00.0,37.9,30.2,15.2,0000.0,0001.80,0009.61,0000.81
2021-10-20 00:45:00,,0826.0,5.00,0.00,28.6,27.8,00.0,37.9,30.2,15.2,0000.0,0001.74,0009.23,0000.81
2021-10-20 00:46:00,,0826.1,5.00,0.00,28.6,27.7,00.0,37.9,30.2,15.3,0000.0,0001.72,0008.62,0000.82
2021-10-20 00:47:00,,0825.8,5.00,0.00,28.5,27.7,00.0,37.9,30.2,15.3,0000.0,0001.72,0008.08,0000.83
2021-10-20 00:48:00,,0825.9,5.01,0.00,28.5,27.7,00.0,37.8,30.1,15.4,0000.0,0001.72,0008.17,0000.83
2021-10-20 00:49:00,,0825.9,5.01,0.00,28.5,27.7,00.0,37.8,30.1,15.4,0000.0,0001.81,0008.44,0000.83
2021-10-20 00:50:00,,0826.0,5.00,0.00,28.4,27.7,00.0,37.8,30.1,15.4,0000.0,0001.86,0008.31,0000.84
2021-10-20 00:51:00,,0826.0,4.99,0.00,28.4,27.6,00.0,37.8,30.1,15.4,0000.0,0001.91,0008.47,0000.85
2021-10-20 00:52:00,,0825.9,5.01,0.00,28.4,27.6,00.0,37.8,30.1,15.4,0000.0,0001.89,0008.93,0000.86
2021-10-20 00:53:00,,0825.9,5.00,0.00,28.4,27.6,00.0,37.7,30.1,15.4,0000.0,0001.84,0008.60,0000.86
2021-10-20 00:54:00,,0825.9,5.00,0.00,28.4,27.6,00.0,37.7,30.0,15.5,0000.0,0001.89,0007.62,0000.88
2021-10-20 00:55:00,,0825.8,5.00,0.00,28.3,27.5,00.0,37.7,30.0,15.6,0000.0,0001.93,0007.21,0000.90
2021-10-20 00:56:00,,0825.8,5.00,0.00,28.3,27.5,00.0,37.7,29.9,15.6,0000.0,0001.99,0007.71,0000.91
2021-10-20 00:57:00,,0825.9,5.00,0.00,28.3,27.5,00.0,37.6,29.9,15.6,0000.0,0002.04,0008.94,0000.92
2021-10-20 00:58:00,,0825.8,5.00,0.00,28.2,27.4,00.0,37.6,29.9,15.6,0000.0,0002.03,0009.80,0000.94
2021-10-20 00:59:00,,0825.9,5.00,0.00,28.2,27.4,00.0,37.6,29.8,15.7,0000.0,0002.06,0010.05,0000.96
